DLH79E EDDF-LEMG

Flight info

Callsign DLH79E
Flight time 2h 35m
Altitude 33000
Route ANEKI2L/18 ANEKI Y163 HERBI Y164 MOPAN DCT LUTIX/N0448F350 DCT BENOT DCT NEMOS DCT NINTU DCT MEBAK DCT REPSI DCT LERGA DCT MINSO DCT NARAK DCT AGN DCT MAQAB DCT TIVLI DCT ELSAP DCT ZAR DCT EXEMU DCT PISUS DCT EDIMU DCT ADUXO DCT NUSGO DCT OBIBO DCT NASOS L27 BLN
Aircraft A321/M-SDE3FGHIRWY/LB1

Departure

Time 2026-04-15 13:22
Airport Frankfurt Main Airport (EDDF)

Arrival

Time 2026-04-15 15:58
Airport Málaga-Costa del Sol Airport (LEMG)
Time Latitude Longitude Altitude Speed Heading
2026-04-15 12:38 50.04533 8.56586 356 ft 0 kts 115°
2026-04-15 13:08 50.04538 8.56569 363 ft 4 kts 115°
2026-04-15 13:09 50.04550 8.56531 363 ft 4 kts 118°
2026-04-15 13:09 50.04564 8.56495 357 ft 4 kts 129°
2026-04-15 13:09 50.04582 8.56470 362 ft 4 kts 171°
2026-04-15 13:09 50.04592 8.56469 360 ft 1 kts 205°
2026-04-15 13:10 50.04576 8.56458 360 ft 3 kts 205°
2026-04-15 13:10 50.04574 8.56456 359 ft 0 kts 205°
2026-04-15 13:13 50.04573 8.56456 359 ft 0 kts 205°
2026-04-15 13:13 50.04545 8.56434 357 ft 10 kts 211°
2026-04-15 13:13 50.04503 8.56330 359 ft 12 kts 250°
2026-04-15 13:14 50.04473 8.56200 357 ft 13 kts 249°
2026-04-15 13:14 50.04444 8.56082 357 ft 11 kts 249°
2026-04-15 13:14 50.04404 8.56029 359 ft 7 kts 187°
2026-04-15 13:14 50.04355 8.56048 360 ft 6 kts 161°
2026-04-15 13:15 50.04349 8.56051 360 ft 0 kts 161°
2026-04-15 13:15 50.04328 8.56063 358 ft 8 kts 160°
2026-04-15 13:15 50.04258 8.56016 356 ft 16 kts 242°
2026-04-15 13:15 50.04208 8.55806 354 ft 25 kts 250°
2026-04-15 13:16 50.04144 8.55540 356 ft 26 kts 250°
2026-04-15 13:16 50.04082 8.55281 356 ft 25 kts 250°
2026-04-15 13:16 50.04051 8.55152 360 ft 25 kts 250°
2026-04-15 13:16 50.03997 8.54924 359 ft 25 kts 250°
2026-04-15 13:17 50.03933 8.54658 357 ft 27 kts 250°
2026-04-15 13:17 50.03870 8.54400 351 ft 24 kts 246°
2026-04-15 13:17 50.03789 8.54174 350 ft 24 kts 249°
2026-04-15 13:17 50.03729 8.53925 349 ft 25 kts 250°
2026-04-15 13:18 50.03667 8.53667 344 ft 26 kts 249°
2026-04-15 13:18 50.03602 8.53409 335 ft 26 kts 249°
2026-04-15 13:18 50.03545 8.53167 334 ft 23 kts 249°
2026-04-15 13:18 50.03492 8.52950 337 ft 20 kts 249°
2026-04-15 13:19 50.03438 8.52748 333 ft 17 kts 249°
2026-04-15 13:19 50.03407 8.52623 334 ft 8 kts 247°
2026-04-15 13:19 50.03363 8.52594 333 ft 7 kts 180°
2026-04-15 13:19 50.03339 8.52594 334 ft 0 kts 180°
2026-04-15 13:21 50.03291 8.52593 332 ft 26 kts 180°
2026-04-15 13:21 50.02855 8.52598 335 ft 97 kts 179°
2026-04-15 13:21 50.01973 8.52606 335 ft 155 kts 180°
2026-04-15 13:22 50.00753 8.52626 521 ft 185 kts 179°
2026-04-15 13:22 49.99492 8.52680 1284 ft 180 kts 176°
2026-04-15 13:22 49.98228 8.52769 1922 ft 186 kts 176°
2026-04-15 13:22 49.96876 8.52868 2182 ft 202 kts 176°
2026-04-15 13:23 49.95425 8.52971 2497 ft 215 kts 176°
2026-04-15 13:23 49.93897 8.53081 2913 ft 223 kts 176°
2026-04-15 13:23 49.92335 8.53200 3513 ft 226 kts 176°
2026-04-15 13:23 49.90757 8.53305 4122 ft 228 kts 176°
2026-04-15 13:24 49.89168 8.53409 4748 ft 229 kts 176°
2026-04-15 13:24 49.87575 8.53516 5370 ft 230 kts 177°
2026-04-15 13:24 49.85970 8.53625 5951 ft 232 kts 178°
2026-04-15 13:24 49.84352 8.53737 6529 ft 234 kts 178°
2026-04-15 13:25 49.82715 8.53848 7066 ft 236 kts 178°
2026-04-15 13:25 49.81066 8.53959 7581 ft 239 kts 178°
2026-04-15 13:25 49.79396 8.54067 8116 ft 241 kts 178°
2026-04-15 13:25 49.77713 8.54097 8633 ft 244 kts 185°
2026-04-15 13:26 49.75967 8.53873 8901 ft 258 kts 186°
2026-04-15 13:26 49.74120 8.53623 9164 ft 275 kts 186°
2026-04-15 13:26 49.72187 8.53360 9701 ft 282 kts 186°
2026-04-15 13:26 49.70220 8.53096 10297 ft 286 kts 186°
2026-04-15 13:27 49.68192 8.52825 10447 ft 307 kts 186°
2026-04-15 13:27 49.65994 8.52532 10592 ft 327 kts 186°
2026-04-15 13:27 49.63671 8.52222 10818 ft 341 kts 186°
2026-04-15 13:27 49.61287 8.51909 11313 ft 346 kts 186°
2026-04-15 13:28 49.58847 8.51589 11876 ft 349 kts 186°
2026-04-15 13:28 49.56448 8.51276 12430 ft 352 kts 186°
2026-04-15 13:28 49.53961 8.50951 12997 ft 355 kts 186°
2026-04-15 13:28 49.51522 8.50631 13542 ft 359 kts 186°
2026-04-15 13:29 49.49025 8.50304 14094 ft 362 kts 186°
2026-04-15 13:29 49.46506 8.49974 14581 ft 365 kts 186°
2026-04-15 13:29 49.43967 8.49644 15083 ft 367 kts 186°
2026-04-15 13:29 49.41410 8.49312 15571 ft 370 kts 186°
2026-04-15 13:30 49.38833 8.48974 16053 ft 373 kts 186°
2026-04-15 13:30 49.36235 8.48632 16542 ft 376 kts 186°
2026-04-15 13:30 49.33617 8.48286 17028 ft 379 kts 186°
2026-04-15 13:30 49.30979 8.47940 17509 ft 382 kts 186°
2026-04-15 13:31 49.28317 8.47594 17992 ft 385 kts 186°
2026-04-15 13:31 49.25639 8.47246 18463 ft 388 kts 186°
2026-04-15 13:31 49.22939 8.46897 18869 ft 391 kts 186°
2026-04-15 13:31 49.20215 8.46549 19250 ft 394 kts 186°
2026-04-15 13:32 49.17473 8.46195 19632 ft 397 kts 186°
2026-04-15 13:32 49.14714 8.45837 20017 ft 400 kts 186°
2026-04-15 13:32 49.11933 8.45477 20413 ft 402 kts 186°
2026-04-15 13:32 49.09133 8.45116 20803 ft 405 kts 186°
2026-04-15 13:33 49.06322 8.44692 21177 ft 407 kts 190°
2026-04-15 13:33 49.03545 8.43785 21536 ft 409 kts 194°
2026-04-15 13:33 49.00765 8.42802 21919 ft 412 kts 194°
2026-04-15 13:33 48.97965 8.41812 22281 ft 415 kts 194°
2026-04-15 13:34 48.95142 8.40820 22644 ft 418 kts 194°
2026-04-15 13:34 48.92303 8.39830 23022 ft 420 kts 194°
2026-04-15 13:34 48.89442 8.38840 23400 ft 423 kts 194°
2026-04-15 13:34 48.86599 8.37860 23756 ft 426 kts 194°
2026-04-15 13:35 48.83700 8.36864 24069 ft 428 kts 194°
2026-04-15 13:35 48.80786 8.35861 24372 ft 431 kts 194°
2026-04-15 13:35 48.77851 8.34848 24676 ft 434 kts 194°
2026-04-15 13:35 48.74905 8.33800 24948 ft 437 kts 195°
2026-04-15 13:36 48.71945 8.32719 25225 ft 439 kts 195°
2026-04-15 13:36 48.68969 8.31617 25510 ft 442 kts 195°
2026-04-15 13:36 48.65976 8.30508 25801 ft 444 kts 195°
2026-04-15 13:36 48.62963 8.29396 26085 ft 446 kts 195°
2026-04-15 13:37 48.59940 8.28289 26361 ft 449 kts 195°
2026-04-15 13:37 48.56893 8.27182 26644 ft 451 kts 195°
2026-04-15 13:37 48.53830 8.26076 26934 ft 454 kts 195°
2026-04-15 13:37 48.50749 8.24965 27195 ft 456 kts 195°
2026-04-15 13:38 48.47654 8.23850 27475 ft 458 kts 195°
2026-04-15 13:38 48.44547 8.22718 27745 ft 461 kts 195°
2026-04-15 13:38 48.41428 8.21573 28012 ft 463 kts 195°
2026-04-15 13:38 48.38289 8.20421 28283 ft 465 kts 195°
2026-04-15 13:39 48.35178 8.19281 28529 ft 468 kts 195°
2026-04-15 13:39 48.32003 8.18122 28759 ft 470 kts 195°
2026-04-15 13:39 48.28812 8.16961 28993 ft 473 kts 195°
2026-04-15 13:39 48.25623 8.15731 29230 ft 474 kts 200°
2026-04-15 13:40 48.22558 8.13932 29455 ft 473 kts 208°
2026-04-15 13:40 48.19560 8.11709 29676 ft 475 kts 208°
2026-04-15 13:40 48.16590 8.09499 29903 ft 477 kts 208°
2026-04-15 13:40 48.13615 8.07292 30136 ft 478 kts 208°
2026-04-15 13:41 48.10671 8.05118 30412 ft 478 kts 208°
2026-04-15 13:41 48.07645 8.02892 30671 ft 478 kts 208°
2026-04-15 13:41 48.04664 8.00702 30929 ft 477 kts 208°
2026-04-15 13:41 48.01722 7.98544 31174 ft 477 kts 208°
2026-04-15 13:42 47.98746 7.96363 31419 ft 477 kts 208°
2026-04-15 13:42 47.95775 7.94184 31673 ft 476 kts 208°
2026-04-15 13:42 47.92799 7.92000 31879 ft 476 kts 208°
2026-04-15 13:42 47.89825 7.89819 32107 ft 476 kts 208°
2026-04-15 13:43 47.86850 7.87642 32349 ft 476 kts 208°
2026-04-15 13:43 47.83879 7.85473 32584 ft 476 kts 208°
2026-04-15 13:43 47.80904 7.83308 32837 ft 475 kts 208°
2026-04-15 13:43 47.77934 7.81152 33066 ft 475 kts 208°
2026-04-15 13:44 47.74965 7.78996 33296 ft 475 kts 209°
2026-04-15 13:44 47.71999 7.76844 33494 ft 475 kts 208°
2026-04-15 13:44 47.69027 7.74692 33690 ft 475 kts 208°
2026-04-15 13:44 47.66054 7.72541 33919 ft 475 kts 208°
2026-04-15 13:45 47.63084 7.70391 34130 ft 475 kts 208°
2026-04-15 13:45 47.60115 7.68246 34339 ft 475 kts 208°
2026-04-15 13:45 47.57149 7.66104 34538 ft 474 kts 208°
2026-04-15 13:47 47.36381 7.51201 35212 ft 473 kts 208°
2026-04-15 13:47 47.30488 7.46995 35211 ft 473 kts 208°
2026-04-15 13:48 47.24575 7.42792 35219 ft 471 kts 208°
2026-04-15 13:48 47.18754 7.38427 35218 ft 467 kts 216°
2026-04-15 13:49 47.13899 7.32245 35213 ft 459 kts 234°
2026-04-15 13:49 47.09924 7.24915 35196 ft 459 kts 235°
2026-04-15 13:50 47.05938 7.17583 35206 ft 460 kts 235°
2026-04-15 13:50 47.01936 7.10262 35223 ft 460 kts 235°
2026-04-15 13:51 46.97932 7.02941 35228 ft 460 kts 235°
2026-04-15 13:51 46.93922 6.95629 35214 ft 460 kts 234°
2026-04-15 13:52 46.89910 6.88342 35232 ft 460 kts 234°
2026-04-15 13:52 46.85902 6.81077 35248 ft 459 kts 234°
2026-04-15 13:53 46.81886 6.73835 35241 ft 458 kts 234°
2026-04-15 13:53 46.77879 6.66613 35244 ft 458 kts 234°
2026-04-15 13:54 46.73889 6.59440 35225 ft 458 kts 234°
2026-04-15 13:54 46.69867 6.52225 35213 ft 459 kts 234°
2026-04-15 13:55 46.65829 6.45020 35212 ft 458 kts 234°
2026-04-15 13:55 46.61802 6.37845 35224 ft 457 kts 234°
2026-04-15 13:56 46.57778 6.30688 35222 ft 456 kts 234°
2026-04-15 13:56 46.53758 6.23564 35224 ft 456 kts 234°
2026-04-15 13:57 46.49735 6.16457 35223 ft 455 kts 234°
2026-04-15 13:57 46.45716 6.09363 35225 ft 455 kts 234°
2026-04-15 13:58 46.41692 6.02279 35217 ft 455 kts 233°
2026-04-15 13:58 46.37696 5.95267 35214 ft 454 kts 234°
2026-04-15 13:59 46.33679 5.88240 35219 ft 453 kts 234°
2026-04-15 13:59 46.29663 5.81226 35222 ft 452 kts 233°
2026-04-15 14:00 46.25644 5.74229 35220 ft 452 kts 233°
2026-04-15 14:00 46.21626 5.67249 35220 ft 452 kts 233°
2026-04-15 14:01 46.15578 5.56798 35217 ft 452 kts 233°
2026-04-15 14:02 46.11932 5.49480 35230 ft 449 kts 239°
2026-04-15 14:02 46.08390 5.42082 35228 ft 448 kts 239°
2026-04-15 14:03 46.04848 5.34712 35228 ft 447 kts 238°
2026-04-15 14:03 46.01898 5.28602 35216 ft 447 kts 238°
2026-04-15 14:04 45.97766 5.20067 35217 ft 447 kts 239°
2026-04-15 14:04 45.94214 5.12731 35211 ft 447 kts 238°
2026-04-15 14:05 45.90667 5.05421 35225 ft 445 kts 238°
2026-04-15 14:05 45.87702 4.99323 35225 ft 444 kts 238°
2026-04-15 14:06 45.84163 4.92072 35215 ft 443 kts 238°
2026-04-15 14:06 45.80644 4.84883 35213 ft 443 kts 238°
2026-04-15 14:07 45.77096 4.77661 35210 ft 443 kts 238°
2026-04-15 14:07 45.73535 4.70445 35205 ft 443 kts 238°
2026-04-15 14:08 45.69986 4.63244 35229 ft 442 kts 238°
2026-04-15 14:08 45.66443 4.56071 35225 ft 441 kts 238°
2026-04-15 14:09 45.62903 4.48919 35221 ft 440 kts 238°
2026-04-15 14:09 45.59360 4.41786 35219 ft 440 kts 238°
2026-04-15 14:10 45.55809 4.34676 35214 ft 440 kts 238°
2026-04-15 14:10 45.52256 4.27578 35210 ft 439 kts 237°
2026-04-15 14:11 45.48742 4.20546 35213 ft 438 kts 237°
2026-04-15 14:11 45.45207 4.13489 35217 ft 437 kts 237°
2026-04-15 14:12 45.41670 4.06457 35216 ft 437 kts 237°
2026-04-15 14:12 45.38124 3.99448 35213 ft 436 kts 237°
2026-04-15 14:13 45.34578 3.92451 35213 ft 436 kts 237°
2026-04-15 14:13 45.31032 3.85458 35204 ft 436 kts 237°
2026-04-15 14:14 45.27489 3.78481 35209 ft 435 kts 237°
2026-04-15 14:14 45.23958 3.71517 35209 ft 434 kts 238°
2026-04-15 14:15 45.20510 3.64498 35208 ft 433 kts 238°
2026-04-15 14:15 45.17083 3.57464 35206 ft 433 kts 238°
2026-04-15 14:16 45.13631 3.50463 35196 ft 433 kts 238°
2026-04-15 14:16 45.10185 3.43527 35195 ft 434 kts 238°
2026-04-15 14:17 45.06706 3.36548 35201 ft 434 kts 238°
2026-04-15 14:17 45.03225 3.29570 35204 ft 434 kts 238°
2026-04-15 14:18 44.99744 3.22586 35203 ft 435 kts 238°
2026-04-15 14:18 44.96259 3.15610 35203 ft 435 kts 238°
2026-04-15 14:19 44.92762 3.08643 35197 ft 435 kts 238°
2026-04-15 14:19 44.89261 3.01676 35202 ft 435 kts 238°
2026-04-15 14:20 44.85755 2.94736 35213 ft 434 kts 237°
2026-04-15 14:20 44.82333 2.87745 35221 ft 432 kts 240°
2026-04-15 14:21 44.79122 2.80666 35224 ft 431 kts 240°
2026-04-15 14:21 44.75911 2.73534 35220 ft 431 kts 240°
2026-04-15 14:22 44.72658 2.66458 35221 ft 431 kts 239°
2026-04-15 14:22 44.69381 2.59433 35223 ft 429 kts 239°
2026-04-15 14:23 44.66111 2.52433 35223 ft 428 kts 239°
2026-04-15 14:23 44.62857 2.45447 35220 ft 427 kts 239°
2026-04-15 14:24 44.59599 2.38471 35221 ft 427 kts 239°
2026-04-15 14:24 44.56343 2.31508 35209 ft 427 kts 239°
2026-04-15 14:25 44.53082 2.24556 35227 ft 426 kts 239°
2026-04-15 14:25 44.49819 2.17631 35231 ft 425 kts 239°
2026-04-15 14:26 44.46558 2.10728 35235 ft 425 kts 239°
2026-04-15 14:26 44.43299 2.03840 35234 ft 424 kts 239°
2026-04-15 14:27 44.40041 1.96970 35225 ft 424 kts 239°
2026-04-15 14:27 44.36783 1.90106 35226 ft 424 kts 239°
2026-04-15 14:28 44.33522 1.83253 35238 ft 423 kts 239°
2026-04-15 14:28 44.30283 1.76489 35239 ft 422 kts 239°
2026-04-15 14:29 44.27066 1.69656 35238 ft 420 kts 240°
2026-04-15 14:29 44.23932 1.62779 35236 ft 420 kts 240°
2026-04-15 14:30 44.20800 1.55908 35227 ft 420 kts 240°
2026-04-15 14:30 44.17651 1.49059 35241 ft 419 kts 240°
2026-04-15 14:31 44.14492 1.42242 35247 ft 418 kts 240°
2026-04-15 14:31 44.11335 1.35444 35244 ft 418 kts 240°
2026-04-15 14:32 44.08187 1.28662 35240 ft 417 kts 240°
2026-04-15 14:32 44.05038 1.21890 35241 ft 417 kts 240°
2026-04-15 14:33 44.01881 1.15128 35229 ft 417 kts 240°
2026-04-15 14:33 43.98746 1.08433 35241 ft 416 kts 240°
2026-04-15 14:34 43.95588 1.01716 35241 ft 415 kts 240°
2026-04-15 14:34 43.92432 0.95012 35243 ft 415 kts 240°
2026-04-15 14:35 43.89236 0.88350 35243 ft 416 kts 235°
2026-04-15 14:35 43.85092 0.82688 35244 ft 420 kts 226°
2026-04-15 14:36 43.80725 0.77302 35234 ft 421 kts 226°
2026-04-15 14:36 43.76357 0.71911 35243 ft 420 kts 226°
2026-04-15 14:37 43.72001 0.66536 35251 ft 419 kts 226°
2026-04-15 14:37 43.67641 0.61177 35249 ft 419 kts 226°
2026-04-15 14:38 43.64404 0.57213 35248 ft 419 kts 226°
2026-04-15 14:38 43.60024 0.51842 35230 ft 419 kts 226°
2026-04-15 14:39 43.55691 0.46546 35235 ft 419 kts 226°
2026-04-15 14:39 43.51320 0.41225 35238 ft 420 kts 226°
2026-04-15 14:40 43.46944 0.35900 35249 ft 419 kts 226°
2026-04-15 14:40 43.42577 0.30597 35236 ft 418 kts 226°
2026-04-15 14:41 43.38214 0.25306 35240 ft 418 kts 226°
2026-04-15 14:41 43.33848 0.20022 35243 ft 418 kts 226°
2026-04-15 14:42 43.29480 0.14754 35247 ft 418 kts 226°
2026-04-15 14:42 43.25111 0.09487 35246 ft 418 kts 226°
2026-04-15 14:43 43.20738 0.04235 35228 ft 418 kts 226°
2026-04-15 14:43 43.16393 -0.00984 35233 ft 418 kts 226°
2026-04-15 14:44 43.12016 -0.06233 35240 ft 418 kts 226°
2026-04-15 14:44 43.07640 -0.11457 35243 ft 417 kts 226°
2026-04-15 14:45 43.03266 -0.16670 35249 ft 417 kts 226°
2026-04-15 14:45 42.98894 -0.21871 35223 ft 417 kts 226°
2026-04-15 14:46 42.94515 -0.27075 35224 ft 417 kts 226°
2026-04-15 14:46 42.90127 -0.32282 35223 ft 418 kts 226°
2026-04-15 14:47 42.85739 -0.37480 35213 ft 418 kts 225°
2026-04-15 14:47 42.81270 -0.42564 35215 ft 422 kts 219°
2026-04-15 14:48 42.75932 -0.46073 35200 ft 431 kts 207°
2026-04-15 14:48 42.70337 -0.49017 35201 ft 431 kts 207°
2026-04-15 14:49 42.64741 -0.51965 35191 ft 431 kts 207°
2026-04-15 14:49 42.59178 -0.54879 35164 ft 431 kts 207°
2026-04-15 14:50 42.53573 -0.57806 35165 ft 432 kts 207°
2026-04-15 14:50 42.47959 -0.60746 35153 ft 432 kts 207°
2026-04-15 14:51 42.42345 -0.63688 35155 ft 433 kts 206°
2026-04-15 14:51 42.36719 -0.66616 35143 ft 433 kts 207°
2026-04-15 14:52 42.31086 -0.69540 35145 ft 434 kts 207°
2026-04-15 14:52 42.25440 -0.72465 35151 ft 435 kts 207°
2026-04-15 14:53 42.19787 -0.75392 35155 ft 435 kts 206°
2026-04-15 14:53 42.14137 -0.78310 35156 ft 435 kts 207°
2026-04-15 14:54 42.08490 -0.81233 35160 ft 435 kts 207°
2026-04-15 14:54 42.02842 -0.84145 35174 ft 435 kts 206°
2026-04-15 14:55 41.97230 -0.87026 35156 ft 435 kts 206°
2026-04-15 14:55 41.91575 -0.89921 35158 ft 435 kts 206°
2026-04-15 14:56 41.85876 -0.92839 35164 ft 435 kts 206°
2026-04-15 14:56 41.80219 -0.95731 35158 ft 435 kts 206°
2026-04-15 14:57 41.74560 -0.98621 35131 ft 435 kts 206°
2026-04-15 14:57 41.68935 -1.01483 35150 ft 436 kts 206°
2026-04-15 14:58 41.63595 -1.05088 35152 ft 426 kts 220°
2026-04-15 14:58 41.58729 -1.09603 35139 ft 426 kts 220°
2026-04-15 14:59 41.53838 -1.14091 35134 ft 427 kts 219°
2026-04-15 14:59 41.48937 -1.18568 35170 ft 427 kts 219°
2026-04-15 15:00 41.44043 -1.23038 35198 ft 426 kts 219°
2026-04-15 15:00 41.39977 -1.26745 35203 ft 426 kts 219°
2026-04-15 15:01 41.35094 -1.31197 35203 ft 425 kts 219°
2026-04-15 15:01 41.30205 -1.35643 35187 ft 426 kts 219°
2026-04-15 15:02 41.25307 -1.40089 35188 ft 427 kts 219°
2026-04-15 15:02 41.20406 -1.44543 35195 ft 427 kts 219°
2026-04-15 15:03 41.15501 -1.48993 35200 ft 427 kts 219°
2026-04-15 15:03 41.10585 -1.53431 35197 ft 427 kts 219°
2026-04-15 15:04 41.05669 -1.57864 35203 ft 427 kts 219°
2026-04-15 15:04 41.00757 -1.62294 35208 ft 427 kts 219°
2026-04-15 15:05 40.95875 -1.66684 35212 ft 427 kts 219°
2026-04-15 15:05 40.90958 -1.71094 35217 ft 427 kts 219°
2026-04-15 15:06 40.83575 -1.77693 35198 ft 428 kts 219°
2026-04-15 15:06 40.78635 -1.82099 35201 ft 429 kts 219°
2026-04-15 15:07 40.73690 -1.86509 35208 ft 429 kts 219°
2026-04-15 15:07 40.68741 -1.90918 35219 ft 430 kts 219°
2026-04-15 15:08 40.63792 -1.95315 35230 ft 429 kts 219°
2026-04-15 15:08 40.58845 -1.99691 35230 ft 428 kts 219°
2026-04-15 15:09 40.53910 -2.04048 35237 ft 427 kts 219°
2026-04-15 15:09 40.49015 -2.08370 35234 ft 427 kts 219°
2026-04-15 15:10 40.44089 -2.12717 35227 ft 426 kts 219°
2026-04-15 15:10 40.39159 -2.17057 35226 ft 427 kts 219°
2026-04-15 15:11 40.34221 -2.21394 35227 ft 428 kts 219°
2026-04-15 15:11 40.29279 -2.25727 35231 ft 428 kts 219°
2026-04-15 15:12 40.24330 -2.30052 35232 ft 427 kts 218°
2026-04-15 15:12 40.19389 -2.34369 35223 ft 427 kts 218°
2026-04-15 15:13 40.14454 -2.38676 35223 ft 426 kts 218°
2026-04-15 15:13 40.09519 -2.42975 35229 ft 426 kts 218°
2026-04-15 15:14 40.04575 -2.47261 35228 ft 427 kts 218°
2026-04-15 15:14 39.99631 -2.51544 35223 ft 427 kts 218°
2026-04-15 15:15 39.94678 -2.55827 35239 ft 427 kts 218°
2026-04-15 15:15 39.89721 -2.60111 35241 ft 428 kts 218°
2026-04-15 15:16 39.84796 -2.64367 35242 ft 428 kts 218°
2026-04-15 15:16 39.79831 -2.68643 35241 ft 428 kts 218°
2026-04-15 15:17 39.74873 -2.72913 35232 ft 427 kts 218°
2026-04-15 15:17 39.69913 -2.77170 35238 ft 427 kts 218°
2026-04-15 15:18 39.64948 -2.81410 35236 ft 427 kts 218°
2026-04-15 15:18 39.59992 -2.85649 35238 ft 427 kts 218°
2026-04-15 15:19 39.55036 -2.89891 35237 ft 427 kts 218°
2026-04-15 15:19 39.50083 -2.94117 35224 ft 427 kts 218°
2026-04-15 15:20 39.45122 -2.98337 35226 ft 426 kts 218°
2026-04-15 15:20 39.40125 -3.02472 35226 ft 429 kts 212°
2026-04-15 15:21 39.34588 -3.05385 35220 ft 434 kts 205°
2026-04-15 15:21 39.28941 -3.08122 35206 ft 433 kts 205°
2026-04-15 15:22 39.23299 -3.10847 35221 ft 433 kts 205°
2026-04-15 15:22 39.17662 -3.13580 35220 ft 433 kts 205°
2026-04-15 15:23 39.12029 -3.16322 35223 ft 433 kts 205°
2026-04-15 15:23 39.06399 -3.19053 35220 ft 433 kts 205°
2026-04-15 15:24 39.00758 -3.21767 35220 ft 433 kts 205°
2026-04-15 15:24 38.95114 -3.24478 35221 ft 433 kts 205°
2026-04-15 15:25 38.89474 -3.27197 35222 ft 433 kts 205°
2026-04-15 15:25 38.83833 -3.29912 35208 ft 433 kts 205°
2026-04-15 15:26 38.78179 -3.32615 35206 ft 434 kts 205°
2026-04-15 15:26 38.72514 -3.35318 35210 ft 435 kts 205°
2026-04-15 15:27 38.66888 -3.38016 35214 ft 435 kts 205°
2026-04-15 15:27 38.61219 -3.40727 35216 ft 435 kts 205°
2026-04-15 15:28 38.55541 -3.43426 35209 ft 435 kts 205°
2026-04-15 15:28 38.49870 -3.46117 35220 ft 435 kts 205°
2026-04-15 15:29 38.44199 -3.48804 35225 ft 435 kts 205°
2026-04-15 15:29 38.38535 -3.51485 35217 ft 434 kts 204°
2026-04-15 15:30 38.32871 -3.54165 35214 ft 434 kts 205°
2026-04-15 15:30 38.30044 -3.55500 35091 ft 432 kts 205°
2026-04-15 15:30 38.27247 -3.56818 34846 ft 427 kts 204°
2026-04-15 15:31 38.24468 -3.58124 34602 ft 425 kts 204°
2026-04-15 15:31 38.21703 -3.59423 34371 ft 423 kts 204°
2026-04-15 15:31 38.18972 -3.60777 34125 ft 417 kts 209°
2026-04-15 15:31 38.16514 -3.62557 33679 ft 408 kts 219°
2026-04-15 15:32 38.14364 -3.64834 33224 ft 399 kts 229°
2026-04-15 15:32 38.12582 -3.67487 32753 ft 391 kts 237°
2026-04-15 15:32 38.11064 -3.70319 32321 ft 386 kts 238°
2026-04-15 15:32 38.09563 -3.73122 31886 ft 382 kts 238°
2026-04-15 15:33 38.08071 -3.75893 31458 ft 378 kts 238°
2026-04-15 15:33 38.06594 -3.78635 31029 ft 375 kts 238°
2026-04-15 15:33 38.05132 -3.81351 30604 ft 371 kts 238°
2026-04-15 15:33 38.03682 -3.84049 30191 ft 368 kts 238°
2026-04-15 15:34 38.02244 -3.86716 29752 ft 364 kts 238°
2026-04-15 15:34 38.00823 -3.89348 29360 ft 359 kts 238°
2026-04-15 15:34 37.99422 -3.91944 28976 ft 354 kts 238°
2026-04-15 15:34 37.98039 -3.94505 28613 ft 349 kts 238°
2026-04-15 15:35 37.96676 -3.97029 28233 ft 346 kts 238°
2026-04-15 15:35 37.95322 -3.99542 27878 ft 344 kts 238°
2026-04-15 15:35 37.93973 -4.02044 27527 ft 343 kts 238°
2026-04-15 15:35 37.92629 -4.04534 27179 ft 342 kts 239°
2026-04-15 15:36 37.91306 -4.06980 26840 ft 341 kts 239°
2026-04-15 15:36 37.89968 -4.09453 26498 ft 340 kts 239°
2026-04-15 15:36 37.88633 -4.11914 26153 ft 339 kts 239°
2026-04-15 15:36 37.87299 -4.14371 25799 ft 338 kts 238°
2026-04-15 15:37 37.85970 -4.16818 25460 ft 337 kts 239°
2026-04-15 15:37 37.84644 -4.19257 25103 ft 336 kts 239°
2026-04-15 15:37 37.83320 -4.21689 24743 ft 335 kts 239°
2026-04-15 15:37 37.82003 -4.24106 24382 ft 334 kts 239°
2026-04-15 15:38 37.80688 -4.26517 24017 ft 332 kts 239°
2026-04-15 15:38 37.79379 -4.28920 23622 ft 331 kts 239°
2026-04-15 15:38 37.78075 -4.31314 23224 ft 330 kts 239°
2026-04-15 15:38 37.76771 -4.33703 22852 ft 330 kts 239°
2026-04-15 15:39 37.75469 -4.36084 22479 ft 329 kts 239°
2026-04-15 15:39 37.74172 -4.38457 22100 ft 328 kts 239°
2026-04-15 15:39 37.72880 -4.40820 21729 ft 327 kts 239°
2026-04-15 15:39 37.71589 -4.43181 21354 ft 326 kts 238°
2026-04-15 15:40 37.70301 -4.45534 20980 ft 325 kts 238°
2026-04-15 15:40 37.69017 -4.47877 20602 ft 324 kts 238°
2026-04-15 15:40 37.67732 -4.50215 20231 ft 324 kts 238°
2026-04-15 15:40 37.66450 -4.52545 19858 ft 322 kts 238°
2026-04-15 15:41 37.65177 -4.54856 19484 ft 320 kts 237°
2026-04-15 15:41 37.63716 -4.56977 19117 ft 321 kts 224°
2026-04-15 15:41 37.61914 -4.58642 18733 ft 323 kts 211°
2026-04-15 15:41 37.59882 -4.59757 18338 ft 324 kts 198°
2026-04-15 15:42 37.57728 -4.60575 17926 ft 322 kts 198°
2026-04-15 15:42 37.55590 -4.61390 17557 ft 320 kts 198°
2026-04-15 15:42 37.53467 -4.62203 17170 ft 318 kts 198°
2026-04-15 15:42 37.51361 -4.63011 16793 ft 316 kts 199°
2026-04-15 15:43 37.49262 -4.63816 16415 ft 314 kts 199°
2026-04-15 15:43 37.47177 -4.64614 16041 ft 312 kts 199°
2026-04-15 15:43 37.45104 -4.65406 15663 ft 311 kts 199°
2026-04-15 15:43 37.43037 -4.66195 15304 ft 310 kts 199°
2026-04-15 15:44 37.40980 -4.66982 14936 ft 309 kts 199°
2026-04-15 15:44 37.38927 -4.67769 14571 ft 308 kts 199°
2026-04-15 15:44 37.36882 -4.68551 14213 ft 307 kts 199°
2026-04-15 15:44 37.34842 -4.69332 13838 ft 306 kts 199°
2026-04-15 15:45 37.32811 -4.70110 13462 ft 305 kts 199°
2026-04-15 15:45 37.30786 -4.70882 13105 ft 303 kts 198°
2026-04-15 15:45 37.28779 -4.71644 12751 ft 301 kts 198°
2026-04-15 15:45 37.26780 -4.72403 12398 ft 299 kts 198°
2026-04-15 15:46 37.24792 -4.73160 12000 ft 299 kts 198°
2026-04-15 15:46 37.22811 -4.73914 11526 ft 302 kts 198°
2026-04-15 15:46 37.20804 -4.74678 11160 ft 301 kts 198°
2026-04-15 15:46 37.18806 -4.75438 10799 ft 300 kts 198°
2026-04-15 15:47 37.16814 -4.76195 10436 ft 299 kts 198°
2026-04-15 15:47 37.14830 -4.76949 10083 ft 297 kts 197°
2026-04-15 15:47 37.12860 -4.77696 9799 ft 292 kts 197°
2026-04-15 15:47 37.10960 -4.78416 9714 ft 279 kts 197°
2026-04-15 15:48 37.09148 -4.79103 9618 ft 265 kts 197°
2026-04-15 15:48 37.07414 -4.79759 9479 ft 257 kts 197°
2026-04-15 15:48 37.05657 -4.80093 9319 ft 256 kts 180°
2026-04-15 15:48 37.03880 -4.80078 8928 ft 255 kts 179°
2026-04-15 15:49 37.02117 -4.80055 8587 ft 251 kts 179°
2026-04-15 15:49 37.00380 -4.80032 8258 ft 248 kts 179°
2026-04-15 15:49 36.98663 -4.80008 7931 ft 245 kts 179°
2026-04-15 15:49 36.96963 -4.79984 7615 ft 243 kts 179°
2026-04-15 15:50 36.95273 -4.79963 7291 ft 242 kts 179°
2026-04-15 15:50 36.93596 -4.79912 6976 ft 240 kts 173°
2026-04-15 15:50 36.91996 -4.79419 6665 ft 236 kts 160°
2026-04-15 15:50 36.90458 -4.78741 6343 ft 233 kts 160°
2026-04-15 15:51 36.88928 -4.78074 6035 ft 235 kts 160°
2026-04-15 15:51 36.87368 -4.77394 5719 ft 238 kts 160°
2026-04-15 15:51 36.85888 -4.76506 5401 ft 235 kts 151°
2026-04-15 15:51 36.84454 -4.75534 5098 ft 233 kts 151°
2026-04-15 15:52 36.83032 -4.74578 4838 ft 230 kts 151°
2026-04-15 15:52 36.81640 -4.73640 4542 ft 225 kts 151°
2026-04-15 15:52 36.80281 -4.72725 4212 ft 219 kts 152°
2026-04-15 15:52 36.78950 -4.71831 3894 ft 216 kts 152°
2026-04-15 15:53 36.77717 -4.70813 3576 ft 210 kts 136°
2026-04-15 15:53 36.76872 -4.69392 3333 ft 200 kts 117°
2026-04-15 15:53 36.76258 -4.67873 3095 ft 192 kts 117°
2026-04-15 15:53 36.75674 -4.66454 2854 ft 181 kts 118°
2026-04-15 15:54 36.75117 -4.65104 2615 ft 168 kts 119°
2026-04-15 15:54 36.74598 -4.63845 2437 ft 160 kts 119°
2026-04-15 15:54 36.74093 -4.62636 2206 ft 154 kts 119°
2026-04-15 15:54 36.73610 -4.61485 2002 ft 146 kts 122°
2026-04-15 15:55 36.73143 -4.60374 1789 ft 143 kts 120°
2026-04-15 15:55 36.72680 -4.59274 1609 ft 143 kts 121°
2026-04-15 15:55 36.72226 -4.58185 1439 ft 141 kts 120°
2026-04-15 15:55 36.71768 -4.57098 1243 ft 146 kts 121°
2026-04-15 15:56 36.71278 -4.55980 1042 ft 147 kts 120°
2026-04-15 15:56 36.70805 -4.54868 828 ft 144 kts 119°
2026-04-15 15:56 36.70358 -4.53777 646 ft 140 kts 118°
2026-04-15 15:56 36.69910 -4.52702 415 ft 139 kts 117°
2026-04-15 15:57 36.69465 -4.51645 227 ft 137 kts 118°
2026-04-15 15:57 36.69026 -4.50595 64 ft 136 kts 117°
2026-04-15 15:57 36.68620 -4.49629 47 ft 111 kts 117°
2026-04-15 15:57 36.68342 -4.48966 44 ft 62 kts 117°
2026-04-15 15:58 36.68179 -4.48626 40 ft 34 kts 134°
2026-04-15 15:58 36.68073 -4.48523 38 ft 23 kts 147°
2026-04-15 15:58 36.67988 -4.48486 37 ft 7 kts 210°
2026-04-15 15:58 36.67985 -4.48560 40 ft 12 kts 291°
2026-04-15 15:59 36.68035 -4.48674 38 ft 17 kts 299°
2026-04-15 15:59 36.68085 -4.48788 40 ft 11 kts 298°
2026-04-15 15:59 36.68123 -4.48880 40 ft 14 kts 297°
2026-04-15 15:59 36.68174 -4.49003 38 ft 18 kts 297°
2026-04-15 16:00 36.68233 -4.49147 38 ft 19 kts 297°
2026-04-15 16:00 36.68280 -4.49281 41 ft 14 kts 273°
2026-04-15 16:00 36.68224 -4.49383 41 ft 15 kts 221°
2026-04-15 16:00 36.68146 -4.49469 42 ft 15 kts 221°
2026-04-15 16:01 36.68061 -4.49561 42 ft 17 kts 221°
2026-04-15 16:01 36.67970 -4.49662 42 ft 18 kts 222°
2026-04-15 16:01 36.67877 -4.49767 42 ft 16 kts 221°
2026-04-15 16:01 36.67793 -4.49791 40 ft 14 kts 139°
2026-04-15 16:02 36.67726 -4.49698 42 ft 15 kts 131°
2026-04-15 16:02 36.67653 -4.49595 42 ft 17 kts 131°
2026-04-15 16:02 36.67583 -4.49494 42 ft 12 kts 130°
2026-04-15 16:02 36.67568 -4.49405 40 ft 10 kts 72°
2026-04-15 16:03 36.67552 -4.49336 42 ft 4 kts 115°
2026-04-15 16:03 36.67547 -4.49323 42 ft 0 kts 115°